FW4468 Weather Reports


Display with metric or nautical units.
time (UTC)temp
F
wind
direction
speed
MPH
gust
MPH
rain 1hr
in
rain 24hr
in
rain mn
in
humidity
%
barometer
mb
20260510220006 61 173 1.0 5.0 0.00 0.00 0.00 61 1019.3
20260510214505 62 228 1.0 5.0 0.00 0.00 0.00 58 1019.1
20260510213004 63 215 1.0 3.0 0.00 0.00 0.00 57 1018.9
20260510211500 60 170 2.0 7.0 0.00 0.00 0.00 61 1018.9
20260510210100 61 315 0.0 5.0 0.00 0.00 0.00 61 1018.9
20260510204605 59 180 2.0 7.0 0.00 0.00 0.00 63 1018.7
20260510203058 60 178 0.0 4.0 0.00 0.00 0.00 61 1019.1
20260510201554 59 132 1.0 5.0 0.00 0.00 0.00 64 1019.0
20260510200105 58 188 1.0 6.0 0.00 0.00 0.00 65 1019.0
20260510194604 58 189 1.0 4.0 0.00 0.00 0.00 64 1018.9
20260510193058 57 172 2.0 6.0 0.00 0.00 0.00 65 1018.8
20260510191549 57 149 1.0 4.0 0.00 0.00 0.00 66 1018.7
20260510190052 57 133 0.0 6.0 0.00 0.00 0.00 67 1018.6
20260510184551 57 200 0.0 5.0 0.00 0.00 0.00 66 1018.6
20260510183044 57 217 2.0 6.0 0.00 0.00 0.00 65 1018.3
20260510181542 57 46 0.0 7.0 0.00 0.00 0.00 67 1018.1
20260510180039 57 186 1.0 6.0 0.00 0.00 0.00 65 1018.0
20260510174543 58 148 1.0 5.0 0.00 0.00 0.00 62 1017.8
20260510173035 58 98 0.0 4.0 0.00 0.00 0.00 63 1017.6
20260510171531 58 181 0.0 4.0 0.00 0.00 0.00 65 1017.6
20260510170028 56 149 1.0 5.0 0.00 0.00 0.00 67 1017.7
20260510164526 56 238 1.0 5.0 0.00 0.00 0.00 67 1017.9
20260510163024 56 256 0.0 3.0 0.00 0.00 0.00 68 1017.5
20260510161524 55 189 0.0 3.0 0.00 0.00 0.00 69 1017.3
20260510160028 54 90 0.0 4.0 0.00 0.00 0.00 69 1017.3
20260510154514 54 232 1.0 5.0 0.00 0.00 0.00 70 1017.2
20260510153012 53 74 1.0 2.0 0.00 0.00 0.00 70 1016.7
20260510151520 53 171 0.0 2.0 0.00 0.00 0.00 71 1017.1
20260510150006 52 171 0.0 2.0 0.00 0.00 0.00 75 1017.0
20260510144503 51 163 0.0 1.0 0.00 0.00 0.00 81 1017.4
20260510143008 49 163 0.0 1.0 0.00 0.00 0.00 81 1017.1
20260510141506 49 163 0.0 0.0 0.00 0.00 0.00 81 1016.9
20260510140001 48 167 0.0 1.0 0.00 0.00 0.00 81 1016.9
20260510134502 47 167 0.0 0.0 0.00 0.00 0.00 81 1016.6
20260510133106 47 167 0.0 0.0 0.00 0.00 0.00 80 1016.9
20260510131601 46 167 0.0 0.0 0.00 0.00 0.00 79 1016.7
20260510130058 46 167 0.0 0.0 0.00 0.00 0.00 78 1016.9
20260510124601 46 167 0.0 0.0 0.00 0.00 0.00 77 1017.0
20260510123056 46 167 0.0 0.0 0.00 0.00 0.00 76 1016.7
20260510121557 46 167 0.0 0.0 0.00 0.00 0.00 75 1016.7
20260510120052 46 167 0.0 0.0 0.00 0.00 0.00 72 1016.7
20260510114607 46 167 0.0 0.0 0.00 0.00 0.00 71 1016.7
20260510113056 46 167 0.0 0.0 0.00 0.00 0.00 70 1016.5
20260510111546 46 167 0.0 0.0 0.00 0.00 0.00 70 1016.6
20260510110043 47 167 0.0 0.0 0.00 0.00 0.00 69 1016.4
20260510104551 47 167 0.0 0.0 0.00 0.00 0.00 69 1016.4
20260510103040 47 167 0.0 0.0 0.00 0.00 0.00 68 1016.2
20260510101537 48 167 0.0 0.0 0.00 0.00 0.00 68 1016.0
20260510100052 49 167 0.0 0.0 0.00 0.00 0.00 67 1016.1
20260510094537 49 167 0.0 0.0 0.00 0.00 0.00 67 1016.2
20260510093031 50 167 0.0 1.0 0.00 0.00 0.00 67 1016.1
20260510091528 50 163 0.0 2.0 0.00 0.00 0.00 67 1016.0
20260510090028 50 126 0.0 2.0 0.00 0.00 0.00 67 1015.8
20260510084527 51 32 0.0 2.0 0.00 0.00 0.00 67 1015.7
20260510083024 51 113 0.0 2.0 0.00 0.00 0.00 66 1015.7
20260510081623 52 115 0.0 2.0 0.00 0.00 0.00 67 1015.7
20260510080021 52 128 0.0 2.0 0.00 0.00 0.00 66 1015.5
20260510074523 52 70 0.0 2.0 0.00 0.00 0.00 66 1015.5
20260510073017 52 105 0.0 1.0 0.00 0.00 0.00 66 1015.6
20260510071514 52 105 0.0 2.0 0.00 0.00 0.00 66 1015.5
20260510070010 52 355 0.0 1.0 0.00 0.00 0.00 66 1015.6
20260510064508 52 355 0.0 1.0 0.00 0.00 0.00 66 1015.5
20260510063010 52 355 0.0 1.0 0.00 0.00 0.00 66 1015.5
20260510061507 53 355 0.0 1.0 0.00 0.00 0.00 65 1015.6
20260510060007 53 355 0.0 0.0 0.00 0.00 0.00 63 1015.7
20260510054507 54 355 0.0 0.0 0.00 0.00 0.00 62 1015.7
20260510053106 54 355 0.0 0.0 0.00 0.00 0.00 61 1015.6
20260510051505 55 355 0.0 0.0 0.00 0.00 0.00 60 1015.7
20260510050005 55 355 0.0 1.0 0.00 0.00 0.00 60 1015.6
20260510044508 55 355 0.0 1.0 0.00 0.00 0.00 59 1015.6
20260510043008 56 355 0.0 1.0 0.00 0.00 0.00 57 1015.6
20260510041503 57 355 0.0 1.0 0.00 0.00 0.00 56 1015.6
20260510040002 58 355 0.0 1.0 0.00 0.00 0.00 55 1015.4
20260510034502 59 355 0.0 0.0 0.00 0.00 0.00 53 1015.5
20260510033001 60 355 0.0 1.0 0.00 0.00 0.00 52 1015.5
20260510031629 61 355 0.0 0.0 0.00 0.00 0.00 50 1015.3
20260510024559 62 355 0.0 1.0 0.00 0.00 0.00 50 1015.7
20260510023059 62 355 0.0 2.0 0.00 0.00 0.00 48 1015.7
20260510021556 63 355 0.0 4.0 0.00 0.00 0.00 48 1015.8
20260510020054 63 338 0.0 3.0 0.00 0.00 0.00 49 1016.0
20260510014605 63 324 1.0 3.0 0.00 0.00 0.00 48 1016.4
20260510013050 64 107 1.0 5.0 0.00 0.00 0.00 48 1016.5
20260510011552 64 360 0.0 5.0 0.00 0.00 0.00 47 1016.7
20260510010059 64 281 3.0 7.0 0.00 0.00 0.00 47 1017.0
20260510004554 64 288 0.0 5.0 0.00 0.00 0.00 48 1017.0
20260510003057 65 246 0.0 3.0 0.00 0.00 0.00 47 1017.0
20260510001547 64 80 0.0 5.0 0.00 0.00 0.00 47 1017.2
20260510000051 65 350 1.0 6.0 0.00 0.00 0.00 49 1017.4
20260509234558 65 40 1.0 8.0 0.00 0.00 0.00 47 1017.5
20260509233042 66 67 2.0 8.0 0.00 0.00 0.00 47 1017.6
20260509231540 66 21 1.0 6.0 0.00 0.00 0.00 46 1017.7
20260509230039 67 40 2.0 9.0 0.00 0.00 0.00 45 1017.7
20260509224539 68 84 2.0 7.0 0.00 0.00 0.00 43 1017.8
20260509223040 69 355 2.0 5.0 0.00 0.00 0.00 42 1018.1
20260509221535 69 58 1.0 5.0 0.00 0.00 0.00 42 1018.4